Wind_Speed
43 44 43 42 44 50 48 45 45 47 50 51 51 53 54 56 57 56 55 55 56 55 56 56 57 58 59 60 62 63 62 62 61 55 50 47 48 49 48 48 48 47 47
41 43 45 48 51 52 48 46 46 48 49 49 51 54 56 56 56 55 54 55 55 55 55 56 58 59 60 60 60 59 58 56 53 47 44 41 41 42 43 43 43 42 40
48 50 51 51 52 51 47 46 47 46 47 49 51 52 53 53 53 53 53 53 54 55 56 57 58 58 56 54 52 51 49 47 43 40 37 36 37 38 39 39 38 36 33
51 51 51 50 49 48 46 46 45 45 47 48 48 49 50 50 51 51 52 53 54 55 56 56 55 52 47 44 43 41 38 35 33 31 29 30 31 34 35 33 29 26 25
50 50 49 48 47 46 45 44 44 45 45 45 47 48 49 50 51 51 52 53 55 55 53 51 47 44 43 41 38 34 29 25 23 22 23 24 27 28 27 22 19 18 17
47 48 48 47 46 45 44 43 43 44 45 46 48 50 51 51 51 51 52 54 54 51 47 45 43 43 42 39 33 27 22 18 17 18 19 20 21 20 16 14 12 12 11
47 48 48 47 44 43 42 42 43 45 46 47 50 51 52 50 50 52 53 51 48 44 41 40 40 38 35 30 26 22 19 17 16 16 16 16 14 12 10 8 7 7 8
49 49 47 43 41 41 41 42 44 46 48 50 51 50 50 49 50 51 49 46 42 37 35 35 34 31 26 21 19 18 16 15 14 13 11 10 8 6 5 5 5 6 7
47 42 39 39 40 40 41 43 45 48 50 50 49 48 48 48 48 46 43 39 33 32 32 32 29 26 21 16 14 13 11 10 9 7 5 5 4 3 4 5 5 7 7
37 34 36 38 40 40 42 44 47 49 48 47 46 46 46 45 43 40 36 31 29 29 29 28 27 22 16 12 8 6 5 5 5 4 4 4 3 4 5 6 6 6 5
33 34 36 37 39 41 43 45 47 47 46 46 46 46 43 40 37 34 30 27 27 26 25 25 23 17 11 7 2 3 7 7 7 8 7 6 6 6 7 7 6 2 2
32 34 35 36 39 41 43 44 44 45 46 47 46 43 38 34 32 29 26 25 23 22 22 21 16 10 6 4 8 10 10 11 11 10 9 7 7 9 9 6 3 4 4
30 32 34 37 39 41 42 43 44 45 46 45 41 35 32 30 27 24 21 20 20 20 20 16 10 8 9 11 12 12 12 12 11 10 9 9 10 10 7 5 6 6 5
29 32 35 38 39 40 42 43 44 43 41 36 31 29 29 26 22 17 16 17 18 18 17 11 10 11 13 13 13 12 11 11 10 9 9 10 10 9 7 7 7 7 8
31 34 36 37 39 40 42 42 40 36 31 27 26 27 25 20 15 12 13 14 15 14 11 10 13 14 13 12 11 11 11 10 9 7 7 9 9 9 8 8 8 8 11
31 34 36 38 40 40 39 36 32 27 23 23 24 23 20 14 10 9 11 11 11 10 9 12 15 15 15 14 14 14 13 11 9 8 9 11 11 10 9 10 11 11 12
32 35 38 39 39 36 33 29 24 21 20 21 21 19 13 8 7 8 9 8 7 8 9 12 13 15 15 15 14 14 13 12 12 12 13 14 12 11 11 11 12 12 13
34 36 37 36 33 28 24 21 18 18 19 19 18 14 9 7 7 8 7 5 5 7 10 12 14 15 15 15 15 14 13 12 12 13 14 13 12 12 13 13 13 15 17
35 35 33 28 24 21 18 18 18 17 18 17 16 12 8 8 8 7 5 5 6 8 12 14 15 15 15 16 16 15 13 10 10 11 12 12 13 14 15 16 17 19 20
31 28 24 21 19 19 18 18 18 17 15 14 13 11 8 8 7 5 6 7 8 10 13 15 14 14 14 14 14 14 12 11 11 11 12 13 15 16 17 18 19 21 22
25 22 20 19 20 20 19 19 18 16 13 9 9 10 9 8 7 9 10 10 11 12 13 14 13 12 11 11 11 12 13 13 12 12 13 15 18 19 18 19 20 22 23
21 20 19 20 20 20 20 19 18 16 12 8 7 9 10 9 10 12 13 13 13 13 12 12 12 10 9 9 9 11 12 13 13 13 15 18 20 19 18 19 21 22 22
19 19 20 20 20 20 20 19 18 16 13 10 8 9 10 11 13 15 15 15 15 14 12 11 10 8 6 7 8 10 12 14 15 16 18 20 20 19 18 19 21 22 21
19 20 20 21 21 21 20 18 17 16 15 13 13 13 13 14 15 17 18 18 17 15 13 12 10 9 8 8 9 11 13 15 16 19 21 21 19 18 19 19 19 19 18
21 21 21 21 22 21 20 19 17 16 16 16 16 16 16 16 17 18 19 20 18 16 15 13 12 11 11 11 11 12 14 15 16 18 20 20 19 18 18 19 18 16 15
26 25 24 24 23 23 22 21 19 18 17 18 18 19 19 19 19 19 19 19 18 17 15 15 14 13 14 13 13 12 13 14 16 17 18 19 18 17 17 17 16 15 14
Wind_Direction
292 294 295 300 306 312 312 307 303 301 299 299 299 298 297 296 295 295 295 295 295 294 294 293 293 293 294 293 291 290 288 287 285 284 280 275 271 270 269 269 269 270 271
299 301 303 307 309 309 307 302 299 298 298 298 298 296 295 294 294 295 296 296 297 297 298 299 299 298 296 294 292 289 287 284 284 284 280 273 269 269 270 270 270 270 267
304 307 308 307 307 305 301 298 297 297 298 297 295 295 294 294 295 297 298 300 302 304 304 303 301 299 297 295 294 292 288 284 282 280 275 270 268 270 272 273 272 268 264
305 306 306 306 304 300 298 297 297 298 298 297 296 297 297 297 299 302 304 306 308 308 307 304 301 298 296 297 298 296 292 287 281 276 270 268 269 271 273 273 270 265 260
303 303 303 303 300 298 297 296 298 298 299 301 302 302 302 304 306 309 310 310 310 309 307 304 301 297 296 297 297 294 292 288 282 276 272 271 270 271 272 270 265 260 250
298 299 300 299 298 297 297 298 300 302 304 306 306 307 309 310 312 313 313 313 312 310 307 305 302 299 297 294 290 287 287 283 280 280 278 273 270 270 266 263 257 246 234
288 292 295 295 295 297 299 301 304 306 308 310 312 312 313 314 314 314 314 313 311 310 309 308 307 305 299 292 284 280 279 277 280 282 278 272 266 259 252 245 235 228 227
280 287 291 294 297 300 302 305 308 311 313 314 314 313 314 315 315 315 314 313 311 311 312 313 314 312 306 295 282 277 279 279 279 276 272 263 251 235 215 199 205 211 216
279 287 294 298 299 302 306 309 312 313 314 313 313 314 315 315 315 314 313 312 313 315 318 319 319 318 313 301 288 280 276 273 266 258 249 227 213 200 176 174 184 194 206
287 295 299 299 302 306 309 311 313 313 313 313 314 316 316 315 314 313 314 315 317 319 320 320 319 319 316 308 298 282 248 213 196 182 178 184 174 151 150 157 164 173 195
299 300 299 301 305 309 311 312 312 312 313 314 316 317 316 315 314 315 316 318 320 319 320 321 321 322 320 317 329 133 141 146 147 144 139 138 138 135 133 132 130 130 296
298 298 301 305 309 311 312 312 312 314 315 317 317 317 316 315 316 317 319 323 325 325 326 329 335 345 7 76 107 117 124 130 132 131 133 135 130 125 122 114 71 28 1
298 302 307 310 311 312 312 313 315 316 317 317 318 317 318 318 318 319 323 330 333 335 339 347 8 43 77 96 104 112 120 127 129 126 123 125 122 118 111 89 58 50 39
305 309 311 312 312 313 315 316 317 318 318 319 320 322 323 322 320 323 330 336 339 341 347 13 56 78 89 96 102 108 115 124 126 121 118 118 113 109 99 77 65 80 85
313 313 313 313 315 317 318 319 320 321 323 324 325 327 327 326 324 328 334 336 340 349 14 68 85 90 95 100 104 107 112 119 124 126 126 122 116 108 93 78 77 101 104
317 316 316 317 318 319 321 322 325 327 329 330 329 330 332 331 329 333 336 339 348 9 58 97 101 101 100 102 105 107 107 106 108 116 124 121 115 106 96 89 90 105 110
321 321 321 321 322 324 326 329 332 335 336 335 334 337 342 346 344 342 346 353 8 36 88 112 113 112 105 102 103 105 103 101 104 111 119 117 109 103 100 95 95 107 115
327 326 326 327 330 333 337 340 341 341 342 344 345 347 356 1 352 347 358 20 42 66 106 119 120 115 106 102 102 102 100 101 105 112 117 114 106 106 105 96 101 112 118
333 333 335 339 344 348 350 349 348 346 348 352 355 0 10 8 356 356 32 70 76 91 117 123 121 112 104 103 101 95 92 100 111 118 118 113 111 113 107 99 105 113 117
341 345 352 358 1 360 357 354 352 351 352 357 6 14 19 15 17 49 87 95 96 108 124 127 123 114 107 104 98 87 85 100 114 119 117 116 119 119 110 104 108 116 120
353 1 7 9 6 3 359 357 356 355 357 5 18 25 30 37 57 84 96 100 104 114 130 134 128 118 109 101 89 76 79 92 109 118 119 124 127 123 114 109 113 119 125
3 9 10 8 5 4 3 3 3 5 12 23 30 31 38 57 79 89 95 97 104 115 130 137 134 124 108 93 79 70 74 87 105 119 126 132 132 127 120 117 117 118 124
10 12 11 9 8 8 9 12 15 22 32 43 42 40 52 74 88 91 93 94 101 109 121 133 136 132 118 97 83 76 80 92 107 121 131 136 136 131 127 125 119 115 115
15 16 16 16 16 16 18 23 29 38 45 51 54 60 70 83 91 93 92 92 97 103 110 120 126 124 117 106 96 91 89 96 108 122 132 138 138 136 133 131 126 118 115
27 25 23 23 24 25 29 35 41 48 53 59 64 68 77 87 92 93 92 91 93 98 102 107 112 115 114 111 106 100 98 101 109 120 131 137 139 140 140 139 136 131 126
38 36 35 35 36 37 39 44 49 55 59 64 69 73 80 86 90 92 92 91 90 92 96 100 103 108 111 113 111 107 105 106 111 117 126 134 139 141 144 146 147 144 140
Height
5757 5753 5749 5745 5739 5734 5728 5722 5717 5711 5705 5699 5693 5686 5679 5672 5665 5657 5650 5643 5637 5631 5625 5618 5611 5604 5598 5592 5585 5577 5571 5565 5561 5559 5555 5552 5550 5550 5549 5550 5550 5551 5552
5746 5741 5737 5732 5727 5721 5715 5710 5704 5698 5693 5686 5680 5673 5666 5659 5652 5644 5637 5630 5623 5616 5608 5600 5593 5586 5580 5573 5566 5559 5552 5547 5543 5541 5539 5538 5537 5536 5536 5537 5537 5538 5538
5735 5730 5725 5720 5715 5709 5703 5697 5691 5685 5680 5674 5667 5660 5654 5647 5639 5631 5623 5616 5608 5599 5591 5583 5576 5569 5563 5556 5548 5541 5535 5531 5529 5528 5527 5526 5526 5526 5526 5526 5526 5526 5527
5723 5719 5714 5708 5703 5697 5691 5686 5680 5674 5668 5662 5654 5647 5640 5633 5625 5617 5608 5600 5592 5584 5575 5567 5560 5553 5547 5541 5535 5528 5523 5520 5518 5517 5516 5516 5517 5516 5516 5516 5516 5517 5518
5712 5707 5702 5696 5691 5685 5680 5674 5668 5662 5656 5649 5642 5635 5628 5619 5611 5601 5593 5585 5577 5569 5561 5553 5546 5540 5534 5529 5523 5518 5514 5511 5509 5509 5509 5509 5508 5508 5508 5509 5509 5510 5512
5700 5695 5690 5685 5680 5674 5669 5663 5657 5651 5644 5636 5629 5622 5614 5605 5596 5587 5579 5572 5564 5555 5548 5540 5533 5527 5521 5516 5513 5510 5507 5505 5504 5503 5503 5502 5502 5502 5503 5504 5505 5507 5510
5688 5683 5679 5674 5669 5664 5658 5652 5646 5639 5631 5624 5616 5608 5599 5591 5583 5575 5567 5559 5551 5544 5537 5530 5522 5515 5509 5505 5503 5502 5501 5500 5500 5499 5498 5497 5497 5498 5500 5501 5503 5506 5508
5677 5672 5667 5663 5658 5653 5647 5640 5634 5626 5619 5611 5604 5595 5587 5580 5572 5564 5556 5548 5541 5534 5527 5520 5513 5506 5500 5497 5496 5496 5496 5496 5496 5495 5495 5495 5496 5497 5499 5501 5503 5506 5508
5665 5660 5656 5653 5648 5642 5635 5628 5621 5614 5607 5600 5592 5585 5577 5570 5562 5555 5547 5539 5532 5526 5519 5512 5506 5500 5496 5492 5491 5491 5492 5493 5493 5493 5494 5495 5496 5498 5500 5502 5504 5505 5506
5654 5651 5647 5643 5637 5631 5624 5617 5610 5603 5597 5589 5583 5576 5568 5561 5553 5546 5539 5532 5526 5520 5514 5507 5501 5496 5492 5490 5488 5488 5489 5491 5493 5494 5495 5496 5498 5500 5501 5503 5504 5505 5506
5647 5643 5639 5634 5628 5621 5614 5606 5600 5593 5587 5580 5573 5567 5560 5552 5545 5538 5532 5526 5520 5515 5509 5503 5497 5493 5490 5488 5487 5488 5490 5492 5494 5495 5497 5499 5500 5502 5503 5505 5506 5506 5506
5640 5636 5631 5625 5618 5611 5604 5597 5590 5583 5576 5569 5563 5557 5551 5544 5538 5532 5526 5521 5516 5511 5505 5500 5495 5491 5489 5489 5489 5491 5493 5495 5496 5498 5500 5502 5503 5505 5506 5507 5507 5506 5505
5634 5629 5623 5616 5609 5602 5595 5588 5581 5574 5567 5561 5554 5548 5542 5537 5531 5526 5522 5518 5513 5508 5503 5498 5495 5493 5492 5492 5494 5495 5497 5499 5500 5502 5503 5505 5507 5508 5509 5509 5508 5507 5505
5628 5621 5614 5608 5601 5594 5587 5580 5572 5565 5558 5552 5546 5540 5535 5530 5526 5522 5520 5516 5512 5508 5504 5500 5498 5497 5497 5497 5499 5500 5501 5503 5504 5505 5507 5508 5510 5511 5512 5511 5510 5509 5508
5620 5613 5607 5600 5593 5586 5578 5571 5564 5557 5551 5545 5540 5535 5530 5526 5523 5520 5518 5515 5512 5508 5505 5503 5502 5502 5502 5502 5503 5504 5505 5506 5507 5508 5510 5511 5513 5514 5514 5513 5513 5512 5511
5613 5607 5600 5592 5585 5577 5571 5564 5556 5551 5545 5540 5536 5531 5527 5524 5521 5519 5517 5514 5512 5509 5507 5506 5506 5506 5506 5507 5507 5508 5509 5510 5510 5511 5512 5514 5516 5517 5516 5516 5516 5516 5515
5607 5600 5592 5584 5577 5569 5563 5556 5551 5546 5542 5537 5533 5529 5525 5523 5521 5519 5517 5515 5513 5511 5510 5510 5510 5510 5511 5511 5512 5512 5513 5513 5514 5514 5516 5518 5519 5519 5519 5519 5519 5519 5520
5601 5593 5585 5577 5569 5563 5557 5552 5548 5543 5539 5535 5531 5527 5525 5523 5521 5519 5517 5516 5515 5513 5513 5513 5514 5515 5515 5516 5516 5517 5517 5517 5518 5518 5520 5521 5522 5523 5523 5523 5523 5524 5525
5595 5587 5579 5572 5565 5560 5555 5551 5546 5542 5538 5534 5530 5527 5525 5523 5521 5519 5518 5517 5516 5515 5515 5517 5518 5519 5520 5520 5521 5521 5521 5521 5521 5522 5523 5525 5526 5527 5527 5528 5528 5528 5530
5591 5583 5576 5570 5565 5559 5554 5550 5545 5541 5537 5533 5530 5528 5525 5523 5521 5520 5519 5518 5518 5518 5519 5521 5522 5523 5524 5525 5525 5525 5525 5525 5525 5525 5526 5528 5530 5531 5532 5533 5533 5535 5537
5589 5582 5576 5570 5565 5559 5554 5549 5544 5540 5536 5534 5531 5529 5526 5524 5522 5521 5521 5520 5520 5521 5522 5524 5526 5528 5528 5529 5529 5529 5529 5529 5528 5529 5530 5532 5534 5536 5537 5539 5540 5542 5544
5588 5582 5576 5571 5565 5560 5554 5549 5544 5540 5536 5534 5532 5530 5528 5526 5524 5523 5523 5523 5523 5524 5526 5528 5530 5531 5532 5533 5533 5532 5532 5532 5532 5532 5534 5536 5539 5541 5543 5545 5547 5548 5550
5588 5582 5577 5572 5566 5560 5555 5550 5545 5541 5538 5535 5533 5532 5530 5528 5527 5526 5526 5527 5527 5528 5529 5531 5533 5534 5535 5536 5536 5536 5536 5536 5536 5537 5538 5541 5544 5547 5549 5551 5553 5555 5557
5589 5584 5578 5573 5568 5562 5557 5552 5548 5544 5541 5538 5536 5534 5532 5531 5530 5530 5530 5531 5531 5532 5533 5535 5536 5537 5538 5539 5539 5540 5540 5540 5540 5541 5543 5546 5549 5551 5554 5556 5559 5561 5563
5591 5585 5580 5575 5570 5565 5560 5555 5551 5548 5545 5542 5540 5538 5536 5535 5535 5535 5535 5535 5536 5537 5538 5539 5539 5540 5541 5542 5543 5544 5544 5545 5546 5547 5548 5551 5553 5556 5558 5561 5563 5566 5568
5594 5589 5584 5579 5574 5568 5563 5559 5555 5552 5549 5547 5545 5543 5541 5541 5540 5540 5540 5541 5541 5542 5543 5543 5544 5544 5545 5546 5547 5548 5549 5550 5551 5552 5553 5555 5558 5560 5562 5565 5567 5569 5572